Time,TemperatureF,DewpointF,PressureIn,WindDirection,WindDirectionDegrees,WindSpeedMPH,WindSpeedGustMPH,Humidity,HourlyPrecipIn,Conditions,Clouds,dailyrainin,SoftwareType,DateUTC
2013-08-03 00:02:00,55.8,49.7,0.00,SW,235,0.7,4.2,80,0.00,,,0.00,WUHU216CR1000,2013-08-03 07:02:00,
2013-08-03 00:07:00,55.8,49.7,0.00,SW,235,0.7,3.1,80,0.00,,,0.00,WUHU216CR1000,2013-08-03 07:07:00,
2013-08-03 00:12:00,55.8,49.7,0.00,SW,235,0.7,3.1,80,0.00,,,0.00,WUHU216CR1000,2013-08-03 07:12:00,
2013-08-03 00:17:00,54.7,49.6,0.00,SSW,212,0.5,3.1,83,0.00,,,0.00,WUHU216CR1000,2013-08-03 07:17:00,
2013-08-03 00:22:00,54.7,49.6,0.00,SSW,212,0.5,2.6,83,0.00,,,0.00,WUHU216CR1000,2013-08-03 07:22:00,
2013-08-03 00:27:00,54.7,49.6,0.00,SSW,212,0.5,2.6,83,0.00,,,0.00,WUHU216CR1000,2013-08-03 07:27:00,
2013-08-03 00:33:00,54.2,49.3,0.00,SSW,212,0.3,2.9,84,0.00,,,0.00,WUHU216CR1000,2013-08-03 07:33:00,
2013-08-03 00:38:00,54.2,49.3,0.00,SSW,212,0.3,2.9,84,0.00,,,0.00,WUHU216CR1000,2013-08-03 07:38:00,
2013-08-03 00:43:00,54.2,49.3,0.00,SSW,212,0.3,2.9,84,0.00,,,0.00,WUHU216CR1000,2013-08-03 07:43:00,
2013-08-03 00:48:00,53.6,49.2,0.00,SW,233,0.7,2.9,85,0.00,,,0.00,WUHU216CR1000,2013-08-03 07:48:00,
2013-08-03 00:53:00,53.6,49.2,0.00,SW,233,0.7,2.3,85,0.00,,,0.00,WUHU216CR1000,2013-08-03 07:53:00,
2013-08-03 00:57:00,53.6,49.2,0.00,SW,233,0.7,2.3,85,0.00,,,0.00,WUHU216CR1000,2013-08-03 07:57:00,
2013-08-03 01:02:00,52.8,48.9,0.00,SW,216,0.7,2.4,86,0.00,,,0.00,WUHU216CR1000,2013-08-03 08:02:00,
2013-08-03 01:07:00,52.8,48.9,0.00,SW,216,0.7,2.4,86,0.00,,,0.00,WUHU216CR1000,2013-08-03 08:07:00,
2013-08-03 01:12:00,52.8,48.9,0.00,SW,216,0.7,2.4,86,0.00,,,0.00,WUHU216CR1000,2013-08-03 08:12:00,
2013-08-03 01:17:00,52.0,48.5,0.00,North,0,0.0,2.4,88,0.00,,,0.00,WUHU216CR1000,2013-08-03 08:17:00,
2013-08-03 01:22:00,52.0,48.5,0.00,North,0,0.0,0.0,88,0.00,,,0.00,WUHU216CR1000,2013-08-03 08:22:00,
2013-08-03 01:27:00,52.0,48.5,0.00,North,0,0.0,0.0,88,0.00,,,0.00,WUHU216CR1000,2013-08-03 08:27:00,
2013-08-03 01:32:00,51.6,48.6,0.00,WSW,242,0.6,2.5,89,0.00,,,0.00,WUHU216CR1000,2013-08-03 08:32:00,
2013-08-03 01:37:00,51.6,48.6,0.00,WSW,242,0.6,2.5,89,0.00,,,0.00,WUHU216CR1000,2013-08-03 08:37:00,
2013-08-03 01:42:00,51.6,48.6,0.00,WSW,242,0.6,2.5,89,0.00,,,0.00,WUHU216CR1000,2013-08-03 08:42:00,
2013-08-03 01:47:00,51.1,48.3,0.00,WSW,249,0.4,2.5,90,0.00,,,0.00,WUHU216CR1000,2013-08-03 08:47:00,
2013-08-03 01:52:00,51.1,48.3,0.00,WSW,249,0.4,1.4,90,0.00,,,0.00,WUHU216CR1000,2013-08-03 08:52:00,
2013-08-03 01:57:00,51.1,48.3,0.00,WSW,249,0.4,1.4,90,0.00,,,0.00,WUHU216CR1000,2013-08-03 08:57:00,
2013-08-03 02:02:00,50.5,47.8,0.00,North,0,0.0,1.4,91,0.00,,,0.00,WUHU216CR1000,2013-08-03 09:02:00,
2013-08-03 02:08:00,50.5,47.8,0.00,North,0,0.0,0.0,91,0.00,,,0.00,WUHU216CR1000,2013-08-03 09:08:00,
2013-08-03 02:13:00,50.5,47.8,0.00,North,0,0.0,0.0,91,0.00,,,0.00,WUHU216CR1000,2013-08-03 09:13:00,
2013-08-03 02:18:00,49.1,45.7,0.00,North,0,0.0,0.0,88,0.00,,,0.00,WUHU216CR1000,2013-08-03 09:18:00,
2013-08-03 02:23:00,49.1,45.7,0.00,North,0,0.0,0.0,88,0.00,,,0.00,WUHU216CR1000,2013-08-03 09:23:00,
2013-08-03 02:28:00,49.1,45.7,0.00,North,0,0.0,0.0,88,0.00,,,0.00,WUHU216CR1000,2013-08-03 09:28:00,
2013-08-03 02:33:00,48.1,44.5,0.00,North,0,0.0,0.0,87,0.00,,,0.00,WUHU216CR1000,2013-08-03 09:33:00,
2013-08-03 02:38:00,48.1,44.5,0.00,North,0,0.0,0.0,87,0.00,,,0.00,WUHU216CR1000,2013-08-03 09:38:00,
2013-08-03 02:43:00,48.1,44.5,0.00,North,0,0.0,0.0,87,0.00,,,0.00,WUHU216CR1000,2013-08-03 09:43:00,
2013-08-03 02:48:00,47.4,44.1,0.00,North,0,0.0,0.0,88,0.00,,,0.00,WUHU216CR1000,2013-08-03 09:48:00,
2013-08-03 02:53:00,47.4,44.1,0.00,North,0,0.0,0.0,88,0.00,,,0.00,WUHU216CR1000,2013-08-03 09:53:00,
2013-08-03 02:58:00,47.4,44.1,0.00,North,0,0.0,0.0,88,0.00,,,0.00,WUHU216CR1000,2013-08-03 09:58:00,
2013-08-03 03:03:00,48.1,45.1,0.00,North,0,0.0,0.0,89,0.00,,,0.00,WUHU216CR1000,2013-08-03 10:03:00,
2013-08-03 03:08:00,48.1,45.1,0.00,North,0,0.0,0.0,89,0.00,,,0.00,WUHU216CR1000,2013-08-03 10:08:00,
2013-08-03 03:13:00,48.1,45.1,0.00,North,0,0.0,0.0,89,0.00,,,0.00,WUHU216CR1000,2013-08-03 10:13:00,
2013-08-03 03:17:00,47.4,44.4,0.00,North,0,0.0,0.0,89,0.00,,,0.00,WUHU216CR1000,2013-08-03 10:17:00,
2013-08-03 03:23:00,47.4,44.4,0.00,North,0,0.0,0.0,89,0.00,,,0.00,WUHU216CR1000,2013-08-03 10:23:00,
2013-08-03 03:28:00,47.4,44.4,0.00,North,0,0.0,0.0,89,0.00,,,0.00,WUHU216CR1000,2013-08-03 10:28:00,
2013-08-03 03:32:00,46.6,44.1,0.00,North,0,0.0,0.0,91,0.00,,,0.00,WUHU216CR1000,2013-08-03 10:32:00,
2013-08-03 03:38:00,46.6,44.1,0.00,North,0,0.0,0.0,91,0.00,,,0.00,WUHU216CR1000,2013-08-03 10:38:00,
2013-08-03 03:43:00,46.6,44.1,0.00,North,0,0.0,0.0,91,0.00,,,0.00,WUHU216CR1000,2013-08-03 10:43:00,
2013-08-03 03:48:00,46.8,44.6,0.00,North,0,0.0,0.0,92,0.00,,,0.00,WUHU216CR1000,2013-08-03 10:48:00,
2013-08-03 03:52:00,46.8,44.6,0.00,North,0,0.0,0.0,92,0.00,,,0.00,WUHU216CR1000,2013-08-03 10:52:00,
2013-08-03 03:57:00,46.8,44.6,0.00,North,0,0.0,0.0,92,0.00,,,0.00,WUHU216CR1000,2013-08-03 10:57:00,
2013-08-03 04:03:00,46.4,44.3,0.00,North,0,0.0,0.0,92,0.00,,,0.00,WUHU216CR1000,2013-08-03 11:03:00,
2013-08-03 04:08:00,46.4,44.3,0.00,North,0,0.0,0.0,92,0.00,,,0.00,WUHU216CR1000,2013-08-03 11:08:00,
2013-08-03 04:12:00,46.4,44.3,0.00,North,0,0.0,0.0,92,0.00,,,0.00,WUHU216CR1000,2013-08-03 11:12:00,
2013-08-03 04:17:00,46.1,44.1,0.00,North,0,0.0,0.0,93,0.00,,,0.00,WUHU216CR1000,2013-08-03 11:17:00,
2013-08-03 04:23:00,46.1,44.1,0.00,North,0,0.0,0.0,93,0.00,,,0.00,WUHU216CR1000,2013-08-03 11:23:00,
2013-08-03 04:28:00,46.1,44.1,0.00,North,0,0.0,0.0,93,0.00,,,0.00,WUHU216CR1000,2013-08-03 11:28:00,
2013-08-03 04:33:00,45.7,43.6,0.00,North,0,0.0,0.0,92,0.00,,,0.00,WUHU216CR1000,2013-08-03 11:33:00,
2013-08-03 04:38:00,45.7,43.6,0.00,North,0,0.0,0.0,92,0.00,,,0.00,WUHU216CR1000,2013-08-03 11:38:00,
2013-08-03 04:43:00,45.7,43.6,0.00,North,0,0.0,0.0,92,0.00,,,0.00,WUHU216CR1000,2013-08-03 11:43:00,
2013-08-03 04:48:00,45.3,43.0,0.00,North,0,0.0,0.0,92,0.00,,,0.00,WUHU216CR1000,2013-08-03 11:48:00,
2013-08-03 04:53:00,45.3,43.0,0.00,North,0,0.0,0.0,92,0.00,,,0.00,WUHU216CR1000,2013-08-03 11:53:00,
2013-08-03 04:58:00,45.3,43.0,0.00,North,0,0.0,0.0,92,0.00,,,0.00,WUHU216CR1000,2013-08-03 11:58:00,
2013-08-03 05:03:00,44.8,42.1,0.00,North,0,0.0,0.0,90,0.00,,,0.00,WUHU216CR1000,2013-08-03 12:03:00,
2013-08-03 05:08:00,44.8,42.1,0.00,North,0,0.0,0.0,90,0.00,,,0.00,WUHU216CR1000,2013-08-03 12:08:00,
2013-08-03 05:12:00,44.8,42.1,0.00,North,0,0.0,0.0,90,0.00,,,0.00,WUHU216CR1000,2013-08-03 12:12:00,
2013-08-03 05:18:00,44.9,41.9,0.00,North,0,0.0,0.0,89,0.00,,,0.00,WUHU216CR1000,2013-08-03 12:18:00,
2013-08-03 05:23:00,44.9,41.9,0.00,North,0,0.0,0.0,89,0.00,,,0.00,WUHU216CR1000,2013-08-03 12:23:00,
2013-08-03 05:28:00,44.9,41.9,0.00,North,0,0.0,0.0,89,0.00,,,0.00,WUHU216CR1000,2013-08-03 12:28:00,
2013-08-03 05:32:00,45.5,43.0,0.00,North,0,0.0,0.0,91,0.00,,,0.00,WUHU216CR1000,2013-08-03 12:32:00,
2013-08-03 05:38:00,45.5,43.0,0.00,North,0,0.0,0.0,91,0.00,,,0.00,WUHU216CR1000,2013-08-03 12:38:00,
2013-08-03 05:43:00,45.5,43.0,0.00,North,0,0.0,0.0,91,0.00,,,0.00,WUHU216CR1000,2013-08-03 12:43:00,
2013-08-03 05:48:00,45.3,42.9,0.00,North,0,0.0,0.0,91,0.00,,,0.00,WUHU216CR1000,2013-08-03 12:48:00,
2013-08-03 05:53:00,45.3,42.9,0.00,North,0,0.0,0.0,91,0.00,,,0.00,WUHU216CR1000,2013-08-03 12:53:00,
2013-08-03 05:57:00,45.3,42.9,0.00,North,0,0.0,0.0,91,0.00,,,0.00,WUHU216CR1000,2013-08-03 12:57:00,
2013-08-03 06:03:00,45.1,43.2,0.00,North,0,0.0,0.0,93,0.00,,,0.00,WUHU216CR1000,2013-08-03 13:03:00,
2013-08-03 06:08:00,45.1,43.2,0.00,North,0,0.0,0.0,93,0.00,,,0.00,WUHU216CR1000,2013-08-03 13:08:00,
2013-08-03 06:13:00,45.1,43.2,0.00,North,0,0.0,0.0,93,0.00,,,0.00,WUHU216CR1000,2013-08-03 13:13:00,
2013-08-03 06:18:00,45.0,43.3,0.00,North,0,0.0,0.0,94,0.00,,,0.00,WUHU216CR1000,2013-08-03 13:18:00,
2013-08-03 06:23:00,45.0,43.3,0.00,North,0,0.0,0.0,94,0.00,,,0.00,WUHU216CR1000,2013-08-03 13:23:00,
2013-08-03 06:28:00,45.0,43.3,0.00,North,0,0.0,0.0,94,0.00,,,0.00,WUHU216CR1000,2013-08-03 13:28:00,
2013-08-03 06:33:00,45.6,43.9,0.00,North,0,0.0,0.0,94,0.00,,,0.00,WUHU216CR1000,2013-08-03 13:33:00,
2013-08-03 06:38:00,45.6,43.9,0.00,North,0,0.0,0.0,94,0.00,,,0.00,WUHU216CR1000,2013-08-03 13:38:00,
2013-08-03 06:43:00,45.6,43.9,0.00,North,0,0.0,0.0,94,0.00,,,0.00,WUHU216CR1000,2013-08-03 13:43:00,
2013-08-03 06:48:00,47.7,45.8,0.00,North,0,0.0,0.0,93,0.00,,,0.00,WUHU216CR1000,2013-08-03 13:48:00,
2013-08-03 06:53:00,47.7,45.8,0.00,North,0,0.0,0.0,93,0.00,,,0.00,WUHU216CR1000,2013-08-03 13:53:00,
2013-08-03 06:58:00,47.7,45.8,0.00,North,0,0.0,0.0,93,0.00,,,0.00,WUHU216CR1000,2013-08-03 13:58:00,
2013-08-03 07:03:00,50.4,48.4,0.00,WSW,250,1.2,3.3,93,0.00,,,0.00,WUHU216CR1000,2013-08-03 14:03:00,
2013-08-03 07:08:00,50.4,48.4,0.00,WSW,250,1.2,3.3,93,0.00,,,0.00,WUHU216CR1000,2013-08-03 14:08:00,
2013-08-03 07:13:00,50.4,48.4,0.00,WSW,250,1.2,3.3,93,0.00,,,0.00,WUHU216CR1000,2013-08-03 14:13:00,
2013-08-03 07:18:00,51.7,49.5,0.00,WSW,248,2.0,3.7,92,0.00,,,0.00,WUHU216CR1000,2013-08-03 14:18:00,
2013-08-03 07:23:00,51.7,49.5,0.00,WSW,248,2.0,3.7,92,0.00,,,0.00,WUHU216CR1000,2013-08-03 14:23:00,
2013-08-03 07:28:00,51.7,49.5,0.00,WSW,248,2.0,3.7,92,0.00,,,0.00,WUHU216CR1000,2013-08-03 14:28:00,
2013-08-03 07:33:00,52.1,49.8,0.00,West,265,2.3,3.7,92,0.00,,,0.00,WUHU216CR1000,2013-08-03 14:33:00,
2013-08-03 07:38:00,52.1,49.8,0.00,West,265,2.3,3.6,92,0.00,,,0.00,WUHU216CR1000,2013-08-03 14:38:00,
2013-08-03 07:43:00,52.1,49.8,0.00,West,265,2.3,3.6,92,0.00,,,0.00,WUHU216CR1000,2013-08-03 14:43:00,
2013-08-03 07:48:00,52.2,50.1,0.00,WNW,286,2.2,3.6,93,0.00,,,0.00,WUHU216CR1000,2013-08-03 14:48:00,
2013-08-03 07:53:00,52.2,50.1,0.00,WNW,286,2.2,3.6,93,0.00,,,0.00,WUHU216CR1000,2013-08-03 14:53:00,
2013-08-03 07:58:00,52.2,50.1,0.00,WNW,286,2.2,3.6,93,0.00,,,0.00,WUHU216CR1000,2013-08-03 14:58:00,
2013-08-03 08:03:00,52.7,50.7,0.00,NW,313,1.6,3.6,93,0.00,,,0.00,WUHU216CR1000,2013-08-03 15:03:00,
2013-08-03 08:08:00,52.7,50.7,0.00,NW,313,1.6,3.0,93,0.00,,,0.00,WUHU216CR1000,2013-08-03 15:08:00,
2013-08-03 08:13:00,52.7,50.7,0.00,NW,313,1.6,3.0,93,0.00,,,0.00,WUHU216CR1000,2013-08-03 15:13:00,
2013-08-03 08:18:00,53.3,51.3,0.00,WSW,255,0.6,3.0,93,0.00,,,0.00,WUHU216CR1000,2013-08-03 15:18:00,
2013-08-03 08:23:00,53.3,51.3,0.00,WSW,255,0.6,3.0,93,0.00,,,0.00,WUHU216CR1000,2013-08-03 15:23:00,
2013-08-03 08:28:00,53.3,51.3,0.00,WSW,255,0.6,3.0,93,0.00,,,0.00,WUHU216CR1000,2013-08-03 15:28:00,
2013-08-03 08:33:00,53.8,51.5,0.00,SW,224,0.2,3.0,92,0.00,,,0.00,WUHU216CR1000,2013-08-03 15:33:00,
2013-08-03 08:38:00,53.8,51.5,0.00,SW,224,0.2,2.5,92,0.00,,,0.00,WUHU216CR1000,2013-08-03 15:38:00,
2013-08-03 08:43:00,53.8,51.5,0.00,SW,224,0.2,2.5,92,0.00,,,0.00,WUHU216CR1000,2013-08-03 15:43:00,
2013-08-03 08:48:00,54.8,52.0,0.00,SW,223,1.5,4.5,90,0.00,,,0.00,WUHU216CR1000,2013-08-03 15:48:00,
2013-08-03 08:53:00,54.8,52.0,0.00,SW,223,1.5,4.5,90,0.00,,,0.00,WUHU216CR1000,2013-08-03 15:53:00,
2013-08-03 08:58:00,54.8,52.0,0.00,SW,223,1.5,4.5,90,0.00,,,0.00,WUHU216CR1000,2013-08-03 15:58:00,
2013-08-03 09:03:00,55.6,52.3,0.00,SW,231,0.9,4.5,89,0.00,,,0.00,WUHU216CR1000,2013-08-03 16:03:00,
2013-08-03 09:08:00,55.6,52.3,0.00,SW,231,0.9,3.8,89,0.00,,,0.00,WUHU216CR1000,2013-08-03 16:08:00,
2013-08-03 09:13:00,55.6,52.3,0.00,SW,231,0.9,3.8,89,0.00,,,0.00,WUHU216CR1000,2013-08-03 16:13:00,
2013-08-03 09:18:00,57.2,52.5,0.00,West,276,1.3,4.2,84,0.00,,,0.00,WUHU216CR1000,2013-08-03 16:18:00,
2013-08-03 09:23:00,57.2,52.5,0.00,West,276,1.3,4.2,84,0.00,,,0.00,WUHU216CR1000,2013-08-03 16:23:00,
2013-08-03 09:28:00,57.2,52.5,0.00,West,276,1.3,4.2,84,0.00,,,0.00,WUHU216CR1000,2013-08-03 16:28:00,
2013-08-03 09:33:00,58.9,53.1,0.00,WSW,245,2.3,6.6,81,0.00,,,0.00,WUHU216CR1000,2013-08-03 16:33:00,
2013-08-03 09:38:00,58.9,53.1,0.00,WSW,245,2.3,6.6,81,0.00,,,0.00,WUHU216CR1000,2013-08-03 16:38:00,
2013-08-03 09:43:00,58.9,53.1,0.00,WSW,245,2.3,6.6,81,0.00,,,0.00,WUHU216CR1000,2013-08-03 16:43:00,
2013-08-03 09:48:00,60.0,53.1,0.00,WSW,255,2.9,8.4,78,0.00,,,0.00,WUHU216CR1000,2013-08-03 16:48:00,
2013-08-03 09:53:00,60.0,53.1,0.00,WSW,255,2.9,8.4,78,0.00,,,0.00,WUHU216CR1000,2013-08-03 16:53:00,
2013-08-03 09:58:00,60.0,53.1,0.00,WSW,255,2.9,8.4,78,0.00,,,0.00,WUHU216CR1000,2013-08-03 16:58:00,
2013-08-03 10:03:00,61.2,53.3,0.00,NW,308,3.1,8.4,75,0.00,,,0.00,WUHU216CR1000,2013-08-03 17:03:00,
2013-08-03 10:08:00,61.2,53.3,0.00,NW,308,3.1,8.3,75,0.00,,,0.00,WUHU216CR1000,2013-08-03 17:08:00,
2013-08-03 10:13:00,61.2,53.3,0.00,NW,308,3.1,8.3,75,0.00,,,0.00,WUHU216CR1000,2013-08-03 17:13:00,
2013-08-03 10:18:00,62.9,53.7,0.00,South,178,2.3,8.3,72,0.00,,,0.00,WUHU216CR1000,2013-08-03 17:18:00,
2013-08-03 10:23:00,62.9,53.7,0.00,South,178,2.3,5.5,72,0.00,,,0.00,WUHU216CR1000,2013-08-03 17:23:00,
2013-08-03 10:28:00,62.9,53.7,0.00,South,178,2.3,5.5,72,0.00,,,0.00,WUHU216CR1000,2013-08-03 17:28:00,
2013-08-03 10:33:00,63.6,53.7,0.00,ESE,111,1.7,5.5,70,0.00,,,0.00,WUHU216CR1000,2013-08-03 17:33:00,
2013-08-03 10:38:00,63.6,53.7,0.00,ESE,111,1.7,4.2,70,0.00,,,0.00,WUHU216CR1000,2013-08-03 17:38:00,
2013-08-03 10:43:00,63.6,53.7,0.00,ESE,111,1.7,4.2,70,0.00,,,0.00,WUHU216CR1000,2013-08-03 17:43:00,
2013-08-03 10:48:00,65.5,54.3,0.00,SW,230,2.0,6.6,67,0.00,,,0.00,WUHU216CR1000,2013-08-03 17:48:00,
2013-08-03 10:53:00,65.5,54.3,0.00,SW,230,2.0,6.6,67,0.00,,,0.00,WUHU216CR1000,2013-08-03 17:53:00,
2013-08-03 10:58:00,65.5,54.3,0.00,SW,230,2.0,6.6,67,0.00,,,0.00,WUHU216CR1000,2013-08-03 17:58:00,
2013-08-03 11:03:00,67.0,55.0,0.00,SSE,166,3.1,11.8,65,0.00,,,0.00,WUHU216CR1000,2013-08-03 18:03:00,
2013-08-03 11:08:00,67.0,55.0,0.00,SSE,166,3.1,11.8,65,0.00,,,0.00,WUHU216CR1000,2013-08-03 18:08:00,
2013-08-03 11:13:00,67.0,55.0,0.00,SSE,166,3.1,11.8,65,0.00,,,0.00,WUHU216CR1000,2013-08-03 18:13:00,
2013-08-03 11:18:00,67.8,54.9,0.00,SSW,201,1.9,11.8,63,0.00,,,0.00,WUHU216CR1000,2013-08-03 18:18:00,
2013-08-03 11:23:00,67.8,54.9,0.00,SSW,201,1.9,6.7,63,0.00,,,0.00,WUHU216CR1000,2013-08-03 18:23:00,
2013-08-03 11:28:00,67.8,54.9,0.00,SSW,201,1.9,6.7,63,0.00,,,0.00,WUHU216CR1000,2013-08-03 18:28:00,
2013-08-03 11:33:00,69.5,55.5,0.00,SSW,195,3.0,7.3,61,0.00,,,0.00,WUHU216CR1000,2013-08-03 18:33:00,
2013-08-03 11:38:00,69.5,55.5,0.00,SSW,195,3.0,7.3,61,0.00,,,0.00,WUHU216CR1000,2013-08-03 18:38:00,
2013-08-03 11:43:00,69.5,55.5,0.00,SSW,195,3.0,7.3,61,0.00,,,0.00,WUHU216CR1000,2013-08-03 18:43:00,
2013-08-03 11:48:00,69.9,55.4,0.00,SW,222,3.8,9.9,60,0.00,,,0.00,WUHU216CR1000,2013-08-03 18:48:00,
2013-08-03 11:53:00,69.9,55.4,0.00,SW,222,3.8,9.9,60,0.00,,,0.00,WUHU216CR1000,2013-08-03 18:53:00,
2013-08-03 11:58:00,69.9,55.4,0.00,SW,222,3.8,9.9,60,0.00,,,0.00,WUHU216CR1000,2013-08-03 18:58:00,
2013-08-03 12:03:00,71.2,55.6,0.00,SW,231,2.9,9.9,58,0.00,,,0.00,WUHU216CR1000,2013-08-03 19:03:00,
2013-08-03 12:08:00,71.2,55.6,0.00,SW,231,2.9,7.5,58,0.00,,,0.00,WUHU216CR1000,2013-08-03 19:08:00,
2013-08-03 12:13:00,71.2,55.6,0.00,SW,231,2.9,7.5,58,0.00,,,0.00,WUHU216CR1000,2013-08-03 19:13:00,
2013-08-03 12:18:00,72.9,56.2,0.00,SSE,165,3.3,8.2,56,0.00,,,0.00,WUHU216CR1000,2013-08-03 19:18:00,
2013-08-03 12:23:00,72.9,56.2,0.00,SSE,165,3.3,8.2,56,0.00,,,0.00,WUHU216CR1000,2013-08-03 19:23:00,
2013-08-03 12:28:00,72.9,56.2,0.00,SSE,165,3.3,8.2,56,0.00,,,0.00,WUHU216CR1000,2013-08-03 19:28:00,
2013-08-03 12:33:00,74.3,56.8,0.00,SW,225,4.2,8.3,54,0.00,,,0.00,WUHU216CR1000,2013-08-03 19:33:00,
2013-08-03 12:38:00,74.3,56.8,0.00,SW,225,4.2,8.3,54,0.00,,,0.00,WUHU216CR1000,2013-08-03 19:38:00,
2013-08-03 12:43:00,74.3,56.8,0.00,SW,225,4.2,8.3,54,0.00,,,0.00,WUHU216CR1000,2013-08-03 19:43:00,
2013-08-03 12:48:00,76.0,57.4,0.00,SSW,206,3.1,8.3,53,0.00,,,0.00,WUHU216CR1000,2013-08-03 19:48:00,
2013-08-03 12:53:00,76.0,57.4,0.00,SSW,206,3.1,8.3,53,0.00,,,0.00,WUHU216CR1000,2013-08-03 19:53:00,
2013-08-03 12:58:00,76.0,57.4,0.00,SSW,206,3.1,8.3,53,0.00,,,0.00,WUHU216CR1000,2013-08-03 19:58:00,
2013-08-03 13:03:00,76.9,57.3,0.00,SW,217,4.1,8.9,51,0.00,,,0.00,WUHU216CR1000,2013-08-03 20:03:00,
2013-08-03 13:08:00,76.9,57.3,0.00,SW,217,4.1,8.9,51,0.00,,,0.00,WUHU216CR1000,2013-08-03 20:08:00,
2013-08-03 13:13:00,76.9,57.3,0.00,SW,217,4.1,8.9,51,0.00,,,0.00,WUHU216CR1000,2013-08-03 20:13:00,
2013-08-03 13:18:00,77.4,57.1,0.00,SSW,205,4.1,8.9,50,0.00,,,0.00,WUHU216CR1000,2013-08-03 20:18:00,
2013-08-03 13:23:00,77.4,57.1,0.00,SSW,205,4.1,8.8,50,0.00,,,0.00,WUHU216CR1000,2013-08-03 20:23:00,
2013-08-03 13:28:00,77.4,57.1,0.00,SSW,205,4.1,8.8,50,0.00,,,0.00,WUHU216CR1000,2013-08-03 20:28:00,
2013-08-03 13:33:00,78.7,56.7,0.00,South,188,3.2,8.8,47,0.00,,,0.00,WUHU216CR1000,2013-08-03 20:33:00,
2013-08-03 13:38:00,78.7,56.7,0.00,South,188,3.2,8.7,47,0.00,,,0.00,WUHU216CR1000,2013-08-03 20:38:00,
2013-08-03 13:43:00,78.7,56.7,0.00,South,188,3.2,8.7,47,0.00,,,0.00,WUHU216CR1000,2013-08-03 20:43:00,
2013-08-03 13:48:00,79.8,56.3,0.00,SE,135,2.8,8.7,45,0.00,,,0.00,WUHU216CR1000,2013-08-03 20:48:00,
2013-08-03 13:53:00,79.8,56.3,0.00,SE,135,2.8,7.7,45,0.00,,,0.00,WUHU216CR1000,2013-08-03 20:53:00,
2013-08-03 13:58:00,79.8,56.3,0.00,SE,135,2.8,7.7,45,0.00,,,0.00,WUHU216CR1000,2013-08-03 20:58:00,
2013-08-03 14:03:00,81.6,56.5,0.00,SE,126,4.3,11.0,42,0.00,,,0.00,WUHU216CR1000,2013-08-03 21:03:00,
2013-08-03 14:08:00,81.6,56.5,0.00,SE,126,4.3,11.0,42,0.00,,,0.00,WUHU216CR1000,2013-08-03 21:08:00,
2013-08-03 14:13:00,81.6,56.5,0.00,SE,126,4.3,11.0,42,0.00,,,0.00,WUHU216CR1000,2013-08-03 21:13:00,
2013-08-03 14:18:00,81.7,55.9,0.00,ESE,117,4.1,11.0,41,0.00,,,0.00,WUHU216CR1000,2013-08-03 21:18:00,
2013-08-03 14:23:00,81.7,55.9,0.00,ESE,117,4.1,9.3,41,0.00,,,0.00,WUHU216CR1000,2013-08-03 21:23:00,
2013-08-03 14:28:00,81.7,55.9,0.00,ESE,117,4.1,9.3,41,0.00,,,0.00,WUHU216CR1000,2013-08-03 21:28:00,
2013-08-03 14:33:00,83.1,57.3,0.00,South,171,4.0,9.6,42,0.00,,,0.00,WUHU216CR1000,2013-08-03 21:33:00,
2013-08-03 14:38:00,83.1,57.3,0.00,South,171,4.0,9.6,42,0.00,,,0.00,WUHU216CR1000,2013-08-03 21:38:00,
2013-08-03 14:43:00,83.1,57.3,0.00,South,171,4.0,9.6,42,0.00,,,0.00,WUHU216CR1000,2013-08-03 21:43:00,
2013-08-03 14:48:00,82.9,57.0,0.00,SSW,202,4.9,10.0,41,0.00,,,0.00,WUHU216CR1000,2013-08-03 21:48:00,
2013-08-03 14:53:00,82.9,57.0,0.00,SSW,202,4.9,10.0,41,0.00,,,0.00,WUHU216CR1000,2013-08-03 21:53:00,
2013-08-03 14:58:00,82.9,57.0,0.00,SSW,202,4.9,10.0,41,0.00,,,0.00,WUHU216CR1000,2013-08-03 21:58:00,
2013-08-03 15:03:00,83.5,57.9,0.00,South,185,4.2,10.4,42,0.00,,,0.00,WUHU216CR1000,2013-08-03 22:03:00,
2013-08-03 15:08:00,83.5,57.9,0.00,South,185,4.2,10.4,42,0.00,,,0.00,WUHU216CR1000,2013-08-03 22:08:00,
2013-08-03 15:13:00,83.5,57.9,0.00,South,185,4.2,10.4,42,0.00,,,0.00,WUHU216CR1000,2013-08-03 22:13:00,
2013-08-03 15:18:00,83.1,58.4,0.00,SSE,168,5.2,11.7,43,0.00,,,0.00,WUHU216CR1000,2013-08-03 22:18:00,
2013-08-03 15:23:00,83.1,58.4,0.00,SSE,168,5.2,11.7,43,0.00,,,0.00,WUHU216CR1000,2013-08-03 22:23:00,
2013-08-03 15:28:00,83.1,58.4,0.00,SSE,168,5.2,11.7,43,0.00,,,0.00,WUHU216CR1000,2013-08-03 22:28:00,
2013-08-03 15:33:00,83.1,58.4,0.00,South,178,5.7,11.7,43,0.00,,,0.00,WUHU216CR1000,2013-08-03 22:33:00,
2013-08-03 15:38:00,83.1,58.4,0.00,South,178,5.7,11.0,43,0.00,,,0.00,WUHU216CR1000,2013-08-03 22:38:00,
2013-08-03 15:43:00,83.1,58.4,0.00,South,178,5.7,11.0,43,0.00,,,0.00,WUHU216CR1000,2013-08-03 22:43:00,
2013-08-03 15:48:00,83.3,58.5,0.00,SSE,164,4.5,11.0,43,0.00,,,0.00,WUHU216CR1000,2013-08-03 22:48:00,
2013-08-03 15:53:00,83.3,58.5,0.00,SSE,164,4.5,9.8,43,0.00,,,0.00,WUHU216CR1000,2013-08-03 22:53:00,
2013-08-03 15:58:00,83.3,58.5,0.00,SSE,164,4.5,9.8,43,0.00,,,0.00,WUHU216CR1000,2013-08-03 22:58:00,
2013-08-03 16:03:00,81.3,57.2,0.00,South,181,5.5,11.2,44,0.00,,,0.00,WUHU216CR1000,2013-08-03 23:03:00,
2013-08-03 16:08:00,81.3,57.2,0.00,South,181,5.5,11.2,44,0.00,,,0.00,WUHU216CR1000,2013-08-03 23:08:00,
2013-08-03 16:13:00,81.3,57.2,0.00,South,181,5.5,11.2,44,0.00,,,0.00,WUHU216CR1000,2013-08-03 23:13:00,
2013-08-03 16:18:00,79.5,56.6,0.00,South,180,4.7,11.2,46,0.00,,,0.00,WUHU216CR1000,2013-08-03 23:18:00,
2013-08-03 16:23:00,79.5,56.6,0.00,South,180,4.7,10.3,46,0.00,,,0.00,WUHU216CR1000,2013-08-03 23:23:00,
2013-08-03 16:28:00,79.5,56.6,0.00,South,180,4.7,10.3,46,0.00,,,0.00,WUHU216CR1000,2013-08-03 23:28:00,
2013-08-03 16:33:00,80.7,56.9,0.00,South,188,4.8,11.6,44,0.00,,,0.00,WUHU216CR1000,2013-08-03 23:33:00,
2013-08-03 16:38:00,80.7,56.9,0.00,South,188,4.8,11.6,44,0.00,,,0.00,WUHU216CR1000,2013-08-03 23:38:00,
2013-08-03 16:43:00,80.7,56.9,0.00,South,188,4.8,11.6,44,0.00,,,0.00,WUHU216CR1000,2013-08-03 23:43:00,
2013-08-03 16:48:00,78.6,56.8,0.00,South,169,3.0,11.6,47,0.00,,,0.00,WUHU216CR1000,2013-08-03 23:48:00,
2013-08-03 16:53:00,78.6,56.8,0.00,South,169,3.0,7.3,47,0.00,,,0.00,WUHU216CR1000,2013-08-03 23:53:00,
2013-08-03 16:58:00,78.6,56.8,0.00,South,169,3.0,7.3,47,0.00,,,0.00,WUHU216CR1000,2013-08-03 23:58:00,
2013-08-03 17:03:00,78.0,56.8,0.00,SSE,160,3.6,7.9,48,0.00,,,0.00,WUHU216CR1000,2013-08-04 00:03:00,
2013-08-03 17:08:00,78.0,56.8,0.00,SSE,160,3.6,7.9,48,0.00,,,0.00,WUHU216CR1000,2013-08-04 00:08:00,
2013-08-03 17:13:00,78.0,56.8,0.00,SSE,160,3.6,7.9,48,0.00,,,0.00,WUHU216CR1000,2013-08-04 00:13:00,
2013-08-03 17:18:00,79.0,56.9,0.00,SSE,161,3.7,9.4,47,0.00,,,0.00,WUHU216CR1000,2013-08-04 00:18:00,
2013-08-03 17:23:00,79.0,56.9,0.00,SSE,161,3.7,9.4,47,0.00,,,0.00,WUHU216CR1000,2013-08-04 00:23:00,
2013-08-03 17:28:00,79.0,56.9,0.00,SSE,161,3.7,9.4,47,0.00,,,0.00,WUHU216CR1000,2013-08-04 00:28:00,
2013-08-03 17:33:00,78.6,56.8,0.00,SE,141,3.8,9.4,47,0.00,,,0.00,WUHU216CR1000,2013-08-04 00:33:00,
2013-08-03 17:38:00,78.6,56.8,0.00,SE,141,3.8,8.3,47,0.00,,,0.00,WUHU216CR1000,2013-08-04 00:38:00,
2013-08-03 17:43:00,78.6,56.8,0.00,SE,141,3.8,8.3,47,0.00,,,0.00,WUHU216CR1000,2013-08-04 00:43:00,
2013-08-03 17:48:00,78.8,56.6,0.00,South,172,3.8,8.3,46,0.00,,,0.00,WUHU216CR1000,2013-08-04 00:48:00,
2013-08-03 17:53:00,78.8,56.6,0.00,South,172,3.8,7.8,46,0.00,,,0.00,WUHU216CR1000,2013-08-04 00:53:00,
2013-08-03 17:58:00,78.8,56.6,0.00,South,172,3.8,7.8,46,0.00,,,0.00,WUHU216CR1000,2013-08-04 00:58:00,
2013-08-03 18:03:00,78.4,56.3,0.00,South,181,4.2,8.9,47,0.00,,,0.00,WUHU216CR1000,2013-08-04 01:03:00,
2013-08-03 18:08:00,78.4,56.3,0.00,South,181,4.2,8.9,47,0.00,,,0.00,WUHU216CR1000,2013-08-04 01:08:00,
2013-08-03 18:13:00,78.4,56.3,0.00,South,181,4.2,8.9,47,0.00,,,0.00,WUHU216CR1000,2013-08-04 01:13:00,
2013-08-03 18:18:00,77.5,55.9,0.00,South,169,3.8,8.9,47,0.00,,,0.00,WUHU216CR1000,2013-08-04 01:18:00,
2013-08-03 18:23:00,77.5,55.9,0.00,South,169,3.8,8.3,47,0.00,,,0.00,WUHU216CR1000,2013-08-04 01:23:00,
2013-08-03 18:28:00,77.5,55.9,0.00,South,169,3.8,8.3,47,0.00,,,0.00,WUHU216CR1000,2013-08-04 01:28:00,
2013-08-03 18:33:00,75.7,55.2,0.00,SSE,162,3.4,8.3,49,0.00,,,0.00,WUHU216CR1000,2013-08-04 01:33:00,
2013-08-03 18:38:00,75.7,55.2,0.00,SSE,162,3.4,8.1,49,0.00,,,0.00,WUHU216CR1000,2013-08-04 01:38:00,
2013-08-03 18:43:00,75.7,55.2,0.00,SSE,162,3.4,8.1,49,0.00,,,0.00,WUHU216CR1000,2013-08-04 01:43:00,
2013-08-03 18:48:00,73.9,55.0,0.00,SE,135,3.2,8.1,52,0.00,,,0.00,WUHU216CR1000,2013-08-04 01:48:00,
2013-08-03 18:53:00,73.9,55.0,0.00,SE,135,3.2,7.2,52,0.00,,,0.00,WUHU216CR1000,2013-08-04 01:53:00,
2013-08-03 18:58:00,73.9,55.0,0.00,SE,135,3.2,7.2,52,0.00,,,0.00,WUHU216CR1000,2013-08-04 01:58:00,
2013-08-03 19:03:00,71.6,54.1,0.00,ESE,122,3.8,7.9,54,0.00,,,0.00,WUHU216CR1000,2013-08-04 02:03:00,
2013-08-03 19:08:00,71.6,54.1,0.00,ESE,122,3.8,7.9,54,0.00,,,0.00,WUHU216CR1000,2013-08-04 02:08:00,
2013-08-03 19:13:00,71.6,54.1,0.00,ESE,122,3.8,7.9,54,0.00,,,0.00,WUHU216CR1000,2013-08-04 02:13:00,
2013-08-03 19:18:00,71.6,53.8,0.00,SE,126,4.3,7.9,53,0.00,,,0.00,WUHU216CR1000,2013-08-04 02:18:00,
2013-08-03 19:23:00,71.6,53.8,0.00,SE,126,4.3,7.9,53,0.00,,,0.00,WUHU216CR1000,2013-08-04 02:23:00,
2013-08-03 19:28:00,71.6,53.8,0.00,SE,126,4.3,7.9,53,0.00,,,0.00,WUHU216CR1000,2013-08-04 02:28:00,
2013-08-03 19:33:00,70.0,53.2,0.00,SSE,147,4.3,8.4,55,0.00,,,0.00,WUHU216CR1000,2013-08-04 02:33:00,
2013-08-03 19:38:00,70.0,53.2,0.00,SSE,147,4.3,8.4,55,0.00,,,0.00,WUHU216CR1000,2013-08-04 02:38:00,
2013-08-03 19:43:00,70.0,53.2,0.00,SSE,147,4.3,8.4,55,0.00,,,0.00,WUHU216CR1000,2013-08-04 02:43:00,
2013-08-03 19:48:00,68.6,52.8,0.00,SSE,148,2.8,8.4,57,0.00,,,0.00,WUHU216CR1000,2013-08-04 02:48:00,
2013-08-03 19:53:00,68.6,52.8,0.00,SSE,148,2.8,6.1,57,0.00,,,0.00,WUHU216CR1000,2013-08-04 02:53:00,
2013-08-03 19:58:00,68.6,52.8,0.00,SSE,148,2.8,6.1,57,0.00,,,0.00,WUHU216CR1000,2013-08-04 02:58:00,
2013-08-03 20:03:00,67.0,52.5,0.00,SSE,155,2.5,6.4,60,0.00,,,0.00,WUHU216CR1000,2013-08-04 03:03:00,
2013-08-03 20:08:00,67.0,52.5,0.00,SSE,155,2.5,6.4,60,0.00,,,0.00,WUHU216CR1000,2013-08-04 03:08:00,
2013-08-03 20:13:00,67.0,52.5,0.00,SSE,155,2.5,6.4,60,0.00,,,0.00,WUHU216CR1000,2013-08-04 03:13:00,
2013-08-03 20:18:00,65.0,52.1,0.00,ESE,122,1.8,6.4,63,0.00,,,0.00,WUHU216CR1000,2013-08-04 03:18:00,
2013-08-03 20:23:00,65.0,52.1,0.00,ESE,122,1.8,4.4,63,0.00,,,0.00,WUHU216CR1000,2013-08-04 03:23:00,
2013-08-03 20:28:00,65.0,52.1,0.00,ESE,122,1.8,4.4,63,0.00,,,0.00,WUHU216CR1000,2013-08-04 03:28:00,
2013-08-03 20:33:00,63.1,51.7,0.00,SSE,165,1.8,4.7,66,0.00,,,0.00,WUHU216CR1000,2013-08-04 03:33:00,
2013-08-03 20:38:00,63.1,51.7,0.00,SSE,165,1.8,4.7,66,0.00,,,0.00,WUHU216CR1000,2013-08-04 03:38:00,
2013-08-03 20:43:00,63.1,51.7,0.00,SSE,165,1.8,4.7,66,0.00,,,0.00,WUHU216CR1000,2013-08-04 03:43:00,
2013-08-03 20:48:00,61.2,51.2,0.00,SW,220,2.1,6.1,70,0.00,,,0.00,WUHU216CR1000,2013-08-04 03:48:00,
2013-08-03 20:53:00,61.2,51.2,0.00,SW,220,2.1,6.1,70,0.00,,,0.00,WUHU216CR1000,2013-08-04 03:53:00,
2013-08-03 20:58:00,61.2,51.2,0.00,SW,220,2.1,6.1,70,0.00,,,0.00,WUHU216CR1000,2013-08-04 03:58:00,
2013-08-03 21:01:00,61.2,51.2,0.00,SW,220,2.1,6.1,70,0.00,,,0.00,WUHU216CR1000,2013-08-04 04:01:00,
2013-08-03 21:06:00,59.3,50.8,0.00,SW,226,2.5,4.6,73,0.00,,,0.00,WUHU216CR1000,2013-08-04 04:06:00,
2013-08-03 21:11:00,59.3,50.8,0.00,SW,226,2.5,4.6,73,0.00,,,0.00,WUHU216CR1000,2013-08-04 04:11:00,
2013-08-03 21:17:00,57.8,50.5,0.00,SW,216,2.0,4.7,77,0.00,,,0.00,WUHU216CR1000,2013-08-04 04:17:00,
2013-08-03 21:22:00,57.8,50.5,0.00,SW,216,2.0,4.7,77,0.00,,,0.00,WUHU216CR1000,2013-08-04 04:22:00,
2013-08-03 21:27:00,57.8,50.5,0.00,SW,216,2.0,4.7,77,0.00,,,0.00,WUHU216CR1000,2013-08-04 04:27:00,
2013-08-03 21:32:00,56.7,50.2,0.00,SSW,213,1.7,6.5,79,0.00,,,0.00,WUHU216CR1000,2013-08-04 04:32:00,
2013-08-03 21:37:00,56.7,50.2,0.00,SSW,213,1.7,6.5,79,0.00,,,0.00,WUHU216CR1000,2013-08-04 04:37:00,
2013-08-03 21:42:00,56.7,50.2,0.00,SSW,213,1.7,6.5,79,0.00,,,0.00,WUHU216CR1000,2013-08-04 04:42:00,
2013-08-03 21:47:00,55.7,49.9,0.00,SW,234,2.3,6.5,81,0.00,,,0.00,WUHU216CR1000,2013-08-04 04:47:00,
2013-08-03 21:52:00,55.7,49.9,0.00,SW,234,2.3,5.2,81,0.00,,,0.00,WUHU216CR1000,2013-08-04 04:52:00,
2013-08-03 21:57:00,55.7,49.9,0.00,SW,234,2.3,5.2,81,0.00,,,0.00,WUHU216CR1000,2013-08-04 04:57:00,
2013-08-03 22:02:00,54.6,49.7,0.00,SSW,213,1.8,5.2,83,0.00,,,0.00,WUHU216CR1000,2013-08-04 05:02:00,
2013-08-03 22:07:00,54.6,49.7,0.00,SSW,213,1.8,4.8,83,0.00,,,0.00,WUHU216CR1000,2013-08-04 05:07:00,
2013-08-03 22:12:00,54.6,49.7,0.00,SSW,213,1.8,4.8,83,0.00,,,0.00,WUHU216CR1000,2013-08-04 05:12:00,
2013-08-03 22:17:00,54.0,49.5,0.00,SW,215,2.0,4.9,85,0.00,,,0.00,WUHU216CR1000,2013-08-04 05:17:00,
2013-08-03 22:22:00,54.0,49.5,0.00,SW,215,2.0,4.9,85,0.00,,,0.00,WUHU216CR1000,2013-08-04 05:22:00,
2013-08-03 22:27:00,54.0,49.5,0.00,SW,215,2.0,4.9,85,0.00,,,0.00,WUHU216CR1000,2013-08-04 05:27:00,
2013-08-03 22:32:00,53.3,49.2,0.00,SW,222,1.1,4.9,86,0.00,,,0.00,WUHU216CR1000,2013-08-04 05:32:00,
2013-08-03 22:37:00,53.3,49.2,0.00,SW,222,1.1,3.5,86,0.00,,,0.00,WUHU216CR1000,2013-08-04 05:37:00,
2013-08-03 22:42:00,53.3,49.2,0.00,SW,222,1.1,3.5,86,0.00,,,0.00,WUHU216CR1000,2013-08-04 05:42:00,
2013-08-03 22:47:00,52.5,49.0,0.00,SW,229,1.6,3.5,88,0.00,,,0.00,WUHU216CR1000,2013-08-04 05:47:00,
2013-08-03 22:52:00,52.5,49.0,0.00,SW,229,1.6,3.3,88,0.00,,,0.00,WUHU216CR1000,2013-08-04 05:52:00,
2013-08-03 22:57:00,52.5,49.0,0.00,SW,229,1.6,3.3,88,0.00,,,0.00,WUHU216CR1000,2013-08-04 05:57:00,
2013-08-03 23:02:00,52.1,49.0,0.00,SSW,208,1.4,3.3,89,0.00,,,0.00,WUHU216CR1000,2013-08-04 06:02:00,
2013-08-03 23:07:00,52.1,49.0,0.00,SSW,208,1.4,3.2,89,0.00,,,0.00,WUHU216CR1000,2013-08-04 06:07:00,
2013-08-03 23:12:00,52.1,49.0,0.00,SSW,208,1.4,3.2,89,0.00,,,0.00,WUHU216CR1000,2013-08-04 06:12:00,
2013-08-03 23:17:00,51.8,49.0,0.00,South,179,0.5,3.2,90,0.00,,,0.00,WUHU216CR1000,2013-08-04 06:17:00,
2013-08-03 23:22:00,51.8,49.0,0.00,South,179,0.5,3.1,90,0.00,,,0.00,WUHU216CR1000,2013-08-04 06:22:00,
2013-08-03 23:27:00,51.8,49.0,0.00,South,179,0.5,3.1,90,0.00,,,0.00,WUHU216CR1000,2013-08-04 06:27:00,
2013-08-03 23:32:00,51.8,49.3,0.00,ESE,115,0.5,3.1,91,0.00,,,0.00,WUHU216CR1000,2013-08-04 06:32:00,
2013-08-03 23:37:00,51.8,49.3,0.00,ESE,115,0.5,2.3,91,0.00,,,0.00,WUHU216CR1000,2013-08-04 06:37:00,
2013-08-03 23:42:00,51.8,49.3,0.00,ESE,115,0.5,2.3,91,0.00,,,0.00,WUHU216CR1000,2013-08-04 06:42:00,
2013-08-03 23:47:00,51.1,48.8,0.00,ESE,115,0.8,2.3,91,0.00,,,0.00,WUHU216CR1000,2013-08-04 06:47:00,
2013-08-03 23:52:00,51.1,48.8,0.00,ESE,115,0.8,2.3,91,0.00,,,0.00,WUHU216CR1000,2013-08-04 06:52:00,
2013-08-03 23:57:00,51.1,48.8,0.00,ESE,115,0.8,2.3,91,0.00,,,0.00,WUHU216CR1000,2013-08-04 06:57:00,